Location: �clusier
(49.9361°N, 2.7869°E)
Time: 21:33:23
(UTC+00:00)

ATLAS CENTAUR R/B - Pass Details

Date: 25 October 2021
Orbit: 459 x 682 km, 64.7° (Epoch: 25 November)

Event Time Altitude Azimuth Distance (km) Brightness Sun altitude
Exits shadow 03:57:08 22° 353° (N) 1,304 3.2 -24.6°
Drops below altitude 10° 03:59:41 10° 25° (NNE) 1,965 4.5 -24.2°
Sets 04:02:23 0° 39° (NE) 2,916 5.7 -23.8°
